Weather in Hartford

United Kingdom     51°47′46″N   0°04′57″E
temp.,
°C
wind,
m/s
gust,
m/s
humid.,
%
clouds,
%
prec.,
mm/h
press.,
hPa
HPBL,
m
17 october, sun
sun1701:00+10s369480 0.1 1018120
04:00+10s3692100 0.0 1017123
07:00+11s3896100 0.0 1016199
10:00+13ssw41086100 0.0 1017575
13:00+16ssw697083 0.0 1017876
16:00+16ssw576437 0.0 1016921
19:00+12s47805 0.0 1017128
22:00+11s35885 0.0 101985
18 october, mon
mon1801:00+10s3389100 0.0 101851
04:00+10s3588100 0.0 1017100
07:00+10sse3490100 0.0 101771
10:00+13s41283100 0.0 1017412
13:00+15s51271100 0.0 1016601
16:00+14s51391100 0.9 1015542
19:00+15s61597100 2.2 1014697
22:00+16ssw51098100 0.6 1014630
19 october, tue
tue1901:00+16sw3899100 0.6 1014362
04:00+15ssw41098100 0.0 1014404
07:00+15ssw51296100 0.0 1014489
10:00+17ssw71796100 1.8 1013819
13:00+20sw91771100 1.8 10121132
16:00+19sw91675100 0.0 10111009
19:00+18ssw81669100 0.0 1010777
22:00+17ssw8166789 0.0 1008762
20 october, wed
wed2001:00+17ssw91875100 0.0 1005889
04:00+15sw81592100 2.4 10031007
07:00+16sw10188472 4.4 10011073
10:00+16sw916809 0.0 10001288
13:00+17sw916731 1.4 9991565
16:00+15sw914789 1.4 9971326
19:00+12sw71280100 2.6 996740
22:00+11ssw81390100 4.3 9921037
21 october, thu
thu2101:00+10wsw81586100 6.6 9931413
04:00+10sw51387100 1.5 993729
07:00+9wnw8148524 5.0 9931023
10:00+10wsw61283100 0.0 995889
13:00+13wsw7106969 0.1 9951299
16:00+12wsw697317 0.6 9951040
19:00+8wnw61085100 5.5 9961032
22:00+8wnw4783100 2.8 997469